SQ5LTL-2 Weather Reports


Display with metric or nautical units.
time (UTC)temp
F
wind
direction
speed
MPH
gust
MPH
rain 1hr
in
rain 24hr
in
rain mn
in
humidity
%
barometer
mb
20260507025523 55 266 1.0 3.0 0.00 0.04 0.00 93 1008.2
20260507025021 55 154 3.0 4.0 0.00 0.04 0.00 93 1008.1
20260507024520 56 146 2.0 5.0 0.00 0.04 0.00 93 1008.1
20260507024019 56 249 1.0 3.0 0.00 0.04 0.00 92 1008.2
20260507023518 56 92 2.0 5.0 0.00 0.04 0.00 92 1008.0
20260507023015 57 350 2.0 4.0 0.00 0.04 0.00 91 1008.0
20260507022535 57 327 3.0 4.0 0.00 0.04 0.00 91 1007.9
20260507022033 56 205 1.0 3.0 0.00 0.04 0.00 91 1007.6
20260507021531 56 201 2.0 4.0 0.00 0.04 0.00 92 1007.7
20260507021030 56 176 0.0 2.0 0.00 0.04 0.00 92 1007.8
20260507020529 56 219 2.0 3.0 0.00 0.04 0.00 92 1007.7
20260507020027 56 174 2.0 4.0 0.00 0.04 0.00 92 1007.7
20260507015526 56 194 2.0 3.0 0.00 0.04 0.00 92 1007.7
20260507015024 56 209 2.0 4.0 0.00 0.04 0.00 92 1007.6
20260507014522 56 147 1.0 3.0 0.00 0.04 0.00 92 1007.7
20260507014021 56 308 1.0 3.0 0.00 0.04 0.00 92 1007.8
20260507013520 57 320 1.0 3.0 0.00 0.04 0.00 92 1007.7
20260507013018 57 0.0 1.0 0.00 0.04 0.00 91 1007.7
20260507012517 57 176 0.0 2.0 0.00 0.04 0.00 91 1007.8
20260507012035 57 177 1.0 2.0 0.00 0.04 0.00 90 1007.7
20260507011534 57 177 0.0 2.0 0.00 0.04 0.00 89 1007.8
20260507011032 58 194 1.0 3.0 0.00 0.04 0.00 89 1007.7
20260507010532 58 196 1.0 2.0 0.00 0.04 0.00 88 1007.8
20260507010030 58 254 1.0 4.0 0.00 0.04 0.00 88 1007.9
20260507005529 58 259 2.0 4.0 0.00 0.04 0.00 87 1007.7
20260507005026 59 189 2.0 4.0 0.00 0.04 0.00 87 1007.5
20260507004525 59 190 2.0 4.0 0.00 0.04 0.00 87 1007.6
20260507004023 59 188 2.0 4.0 0.00 0.04 0.00 87 1007.6
20260507003522 59 182 2.0 4.0 0.00 0.04 0.00 87 1007.5
20260507003020 59 192 2.0 5.0 0.00 0.04 0.00 87 1007.6
20260507002519 59 188 2.0 4.0 0.00 0.04 0.00 87 1007.5
20260507002017 59 188 2.0 5.0 0.00 0.04 0.00 87 1007.5
20260507001516 59 193 2.0 5.0 0.00 0.04 0.00 87 1007.7
20260507001034 59 197 2.0 4.0 0.00 0.04 0.00 86 1007.5
20260507000533 59 208 2.0 6.0 0.00 0.04 0.00 86 1007.6
20260507000032 59 198 3.0 6.0 0.00 0.04 0.00 86 1007.6
20260506235530 59 197 3.0 7.0 0.00 0.04 0.00 86 1007.7
20260506235029 59 214 3.0 6.0 0.00 0.04 0.00 86 1007.8
20260506234528 59 190 2.0 5.0 0.00 0.04 0.00 85 1007.7
20260506234026 59 204 3.0 5.0 0.00 0.04 0.00 85 1007.6
20260506233525 59 209 3.0 5.0 0.00 0.04 0.00 85 1007.7
20260506233023 59 207 3.0 5.0 0.00 0.04 0.00 85 1007.6
20260506232521 59 191 2.0 4.0 0.00 0.04 0.00 85 1007.5
20260506232020 59 186 1.0 5.0 0.00 0.04 0.00 84 1007.5
20260506231518 59 181 2.0 6.0 0.00 0.04 0.00 85 1007.5
20260506231017 58 183 1.0 4.0 0.00 0.04 0.00 86 1007.5
20260506230515 58 207 1.0 3.0 0.00 0.04 0.00 87 1007.4
20260506230035 58 191 0.0 2.0 0.00 0.04 0.00 88 1007.4
20260506225532 57 209 0.0 2.0 0.00 0.04 0.00 89 1007.5
20260506225032 57 171 0.0 2.0 0.00 0.04 0.00 91 1007.5
20260506224529 57 209 1.0 2.0 0.00 0.04 0.00 92 1007.5
20260506224029 57 186 1.0 3.0 0.00 0.04 0.00 92 1007.4
20260506223527 57 193 1.0 2.0 0.00 0.04 0.00 92 1007.5
20260506223026 57 226 0.0 2.0 0.00 0.04 0.00 92 1007.4
20260506222524 57 188 0.0 2.0 0.00 0.04 0.00 92 1007.4
20260506222022 57 205 1.0 2.0 0.01 0.04 0.00 92 1007.3
20260506221521 57 0.0 0.0 0.01 0.04 0.00 91 1007.2
20260506221020 57 171 0.0 1.0 0.02 0.04 0.00 91 1007.4
20260506220518 58 183 0.0 1.0 0.02 0.04 0.00 90 1007.5
20260506220017 58 84 1.0 2.0 0.02 0.04 0.00 89 1007.4
20260506215536 59 50 1.0 2.0 0.02 0.04 0.04 88 1007.4
20260506215034 59 354 1.0 2.0 0.04 0.04 0.04 86 1007.4
20260506214532 60 216 1.0 3.0 0.04 0.04 0.04 84 1007.6
20260506214031 61 137 2.0 5.0 0.04 0.04 0.04 79 1007.6
20260506213529 61 17 1.0 3.0 0.04 0.04 0.04 81 1007.7
20260506213028 62 231 1.0 2.0 0.04 0.04 0.04 77 1007.8
20260506212527 62 200 3.0 8.0 0.04 0.04 0.04 77 1007.8
20260506212025 62 223 2.0 5.0 0.04 0.04 0.04 81 1007.6
20260506211523 62 292 2.0 5.0 0.03 0.03 0.03 81 1008.0
20260506211022 62 248 1.0 3.0 0.03 0.03 0.03 80 1008.0
20260506210520 63 216 2.0 4.0 0.03 0.03 0.03 76 1008.1
20260506210019 64 221 4.0 7.0 0.02 0.02 0.02 74 1008.2
20260506205518 66 215 4.0 13.0 0.02 0.02 0.02 66 1008.0
20260506205016 67 206 6.0 11.0 0.00 0.00 0.00 61 1008.0
20260506204535 67 205 6.0 12.0 0.00 0.00 0.00 61 1007.9
20260506204033 67 215 5.0 15.0 0.00 0.00 0.00 62 1008.0
20260506203532 68 216 5.0 15.0 0.00 0.00 0.00 60 1008.0
20260506203032 68 203 6.0 12.0 0.00 0.00 0.00 58 1008.1
20260506202529 68 202 4.0 9.0 0.00 0.00 0.00 58 1007.9
20260506202027 68 200 3.0 9.0 0.00 0.00 0.00 57 1007.9
20260506201526 68 190 4.0 8.0 0.00 0.00 0.00 56 1007.9
20260506201024 68 196 3.0 6.0 0.00 0.00 0.00 56 1007.8
20260506200524 67 207 3.0 6.0 0.00 0.00 0.00 57 1007.7
20260506200022 66 203 2.0 3.0 0.00 0.00 0.00 59 1007.8
20260506195521 63 200 1.0 2.0 0.00 0.00 0.00 66 1007.7
20260506195019 62 134 0.0 3.0 0.00 0.00 0.00 67 1007.6
20260506194517 63 164 1.0 3.0 0.00 0.00 0.00 66 1007.8
20260506194015 61 176 0.0 3.0 0.00 0.00 0.00 70 1007.6
20260506193534 61 151 1.0 2.0 0.00 0.00 0.00 70 1007.7
20260506193033 62 91 0.0 1.0 0.00 0.00 0.00 69 1007.7
20260506192531 62 207 0.0 1.0 0.00 0.00 0.00 69 1007.8
20260506192031 61 179 0.0 2.0 0.00 0.00 0.00 70 1007.7
20260506191528 61 170 0.0 2.0 0.00 0.00 0.00 71 1007.6
20260506191026 61 144 1.0 3.0 0.00 0.00 0.00 71 1007.6
20260506190525 61 200 0.0 2.0 0.00 0.00 0.00 71 1007.6
20260506190024 62 166 1.0 2.0 0.00 0.00 0.00 68 1007.6
20260506185522 62 149 0.0 1.0 0.00 0.00 0.00 67 1007.5
20260506185021 62 193 0.0 1.0 0.00 0.00 0.00 67 1007.3
20260506184520 62 0.0 1.0 0.00 0.00 0.00 67 1007.3
20260506184018 63 0.0 1.0 0.00 0.00 0.00 66 1007.2
20260506183516 63 180 0.0 1.0 0.00 0.00 0.00 66 1007.2
20260506183035 64 171 0.0 1.0 0.00 0.00 0.00 64 1007.3
20260506182533 64 175 0.0 1.0 0.00 0.00 0.00 64 1007.2
20260506182032 64 186 0.0 1.0 0.00 0.00 0.00 63 1007.1
20260506181531 65 0.0 1.0 0.00 0.00 0.00 62 1007.0
20260506181029 65 0.0 0.0 0.00 0.00 0.00 60 1006.8
20260506180529 66 0.0 0.0 0.00 0.00 0.00 58 1006.8
20260506180026 67 0.0 0.0 0.00 0.00 0.00 58 1006.9
20260506175525 67 142 0.0 1.0 0.00 0.00 0.00 57 1006.9
20260506175023 68 0.0 0.0 0.00 0.00 0.00 57 1007.0
20260506174522 68 0.0 0.0 0.00 0.00 0.00 56 1007.1
20260506174020 69 0.0 0.0 0.00 0.00 0.00 54 1007.0
20260506173519 70 0.0 0.0 0.00 0.00 0.00 53 1006.8
20260506173018 70 0.0 1.0 0.00 0.00 0.00 53 1006.8
20260506172517 71 291 0.0 1.0 0.00 0.00 0.00 51 1007.0
20260506172035 72 0.0 0.0 0.00 0.00 0.00 50 1006.9
20260506171533 73 0.0 1.0 0.00 0.00 0.00 48 1006.9
20260506171031 73 225 0.0 2.0 0.00 0.00 0.00 46 1006.9
20260506170530 73 243 0.0 2.0 0.00 0.00 0.00 46 1006.8
20260506170029 74 295 0.0 1.0 0.00 0.00 0.00 44 1006.9
20260506165527 75 217 1.0 3.0 0.00 0.00 0.00 42 1006.7
20260506165025 74 215 1.0 4.0 0.00 0.00 0.00 42 1006.8
20260506164524 75 220 1.0 2.0 0.00 0.00 0.00 41 1006.6
20260506164022 75 226 2.0 4.0 0.00 0.00 0.00 41 1006.7
20260506163521 75 213 2.0 4.0 0.00 0.00 0.00 41 1006.7
20260506163020 76 225 2.0 5.0 0.00 0.00 0.00 41 1006.7
20260506162519 76 221 3.0 5.0 0.00 0.00 0.00 40 1006.7
20260506162016 77 209 4.0 9.0 0.00 0.00 0.00 39 1006.7
20260506161536 77 211 3.0 9.0 0.00 0.00 0.00 39 1006.6
20260506161033 77 214 3.0 6.0 0.00 0.00 0.00 40 1006.7
20260506160532 76 211 3.0 5.0 0.00 0.00 0.00 41 1006.8
20260506160031 76 218 3.0 5.0 0.00 0.00 0.00 41 1006.7
20260506155530 76 214 3.0 6.0 0.00 0.00 0.00 41 1006.6
20260506155027 76 213 3.0 6.0 0.00 0.00 0.00 41 1006.7
20260506154526 77 212 4.0 7.0 0.00 0.00 0.00 40 1006.8
20260506154025 77 218 2.0 5.0 0.00 0.00 0.00 40 1006.8
20260506153523 77 220 3.0 7.0 0.00 0.00 0.00 40 1006.8
20260506153023 78 208 2.0 6.0 0.00 0.00 0.00 40 1006.8
20260506152520 78 227 3.0 6.0 0.00 0.00 0.00 41 1006.8
20260506152019 78 199 3.0 7.0 0.00 0.00 0.00 40 1006.8
20260506151517 78 205 3.0 6.0 0.00 0.00 0.00 40 1006.9
20260506151016 78 198 5.0 9.0 0.00 0.00 0.00 39 1007.0
20260506150536 79 214 3.0 11.0 0.00 0.00 0.00 39 1007.0
20260506150034 79 211 3.0 9.0 0.00 0.00 0.00 39 1006.8
20260506145531 78 206 5.0 14.0 0.00 0.00 0.00 39 1007.0
20260506145030 79 216 5.0 10.0 0.00 0.00 0.00 39 1006.9
20260506144529 79 225 5.0 10.0 0.00 0.00 0.00 38 1006.9
20260506144028 77 239 3.0 7.0 0.00 0.00 0.00 40 1007.0
20260506143525 77 205 2.0 6.0 0.00 0.00 0.00 41 1007.0
20260506143024 78 223 4.0 9.0 0.00 0.00 0.00 39 1007.0
20260506142524 80 215 5.0 13.0 0.00 0.00 0.00 37 1006.9
20260506142021 79 210 5.0 9.0 0.00 0.00 0.00 38 1006.8
20260506141520 77 208 5.0 10.0 0.00 0.00 0.00 40 1006.8
20260506141018 78 232 4.0 7.0 0.00 0.00 0.00 40 1006.9
20260506140518 78 226 3.0 10.0 0.00 0.00 0.00 40 1007.0
20260506140015 78 203 3.0 8.0 0.00 0.00 0.00 39 1006.8
20260506135534 78 212 6.0 11.0 0.00 0.00 0.00 40 1006.8
20260506135032 77 213 3.0 7.0 0.00 0.00 0.00 41 1006.8
20260506134531 78 223 4.0 9.0 0.00 0.00 0.00 41 1006.8
20260506134029 79 210 4.0 6.0 0.00 0.00 0.00 41 1006.7
20260506133529 79 219 4.0 8.0 0.00 0.00 0.00 40 1006.7
20260506133026 79 215 4.0 14.0 0.00 0.00 0.00 40 1006.7
20260506132525 78 198 6.0 10.0 0.00 0.00 0.00 41 1006.7
20260506132023 78 207 5.0 11.0 0.00 0.00 0.00 41 1006.7
20260506131522 78 205 4.0 10.0 0.00 0.00 0.00 41 1006.7
20260506131021 77 204 3.0 9.0 0.00 0.00 0.00 43 1006.7
20260506130519 78 218 6.0 11.0 0.00 0.00 0.00 42 1006.8
20260506130018 78 216 6.0 12.0 0.00 0.00 0.00 42 1006.8
20260506125516 78 216 6.0 13.0 0.00 0.00 0.00 41 1006.9
20260506125035 78 209 6.0 13.0 0.00 0.00 0.00 41 1006.8
20260506124535 78 200 5.0 10.0 0.00 0.00 0.00 41 1006.8
20260506124032 79 225 6.0 13.0 0.00 0.00 0.00 40 1006.8
20260506123531 79 210 4.0 9.0 0.00 0.00 0.00 40 1006.8
20260506123029 77 213 5.0 10.0 0.00 0.00 0.00 42 1006.9
20260506122528 78 227 6.0 15.0 0.00 0.00 0.00 41 1006.9
20260506122026 78 223 5.0 14.0 0.00 0.00 0.00 40 1006.8
20260506121526 78 211 7.0 15.0 0.00 0.00 0.00 41 1006.6
20260506121024 79 198 6.0 15.0 0.00 0.00 0.00 40 1006.7
20260506120522 79 223 5.0 11.0 0.00 0.00 0.00 40 1006.8
20260506120021 79 209 5.0 12.0 0.00 0.00 0.00 40 1006.7
20260506115518 78 208 5.0 11.0 0.00 0.00 0.00 41 1006.5
20260506115017 79 215 7.0 13.0 0.00 0.00 0.00 39 1006.7
20260506114517 77 205 5.0 9.0 0.00 0.00 0.00 40 1006.7
20260506114034 78 210 7.0 13.0 0.00 0.00 0.00 39 1006.6
20260506113533 78 197 7.0 18.0 0.00 0.00 0.00 39 1006.6
20260506113031 78 189 7.0 14.0 0.00 0.00 0.00 38 1006.6
20260506112530 78 194 8.0 19.0 0.00 0.00 0.00 38 1006.5
20260506112029 78 223 4.0 8.0 0.00 0.00 0.00 37 1006.6
20260506111527 79 205 6.0 12.0 0.00 0.00 0.00 37 1006.6
20260506111026 78 201 7.0 15.0 0.00 0.00 0.00 37 1006.5
20260506110524 79 195 5.0 11.0 0.00 0.00 0.00 37 1006.6
20260506110023 78 184 5.0 9.0 0.00 0.00 0.00 37 1006.5
20260506105522 78 197 5.0 11.0 0.00 0.00 0.00 37 1006.6
20260506105020 78 197 7.0 14.0 0.00 0.00 0.00 37 1006.5
20260506104518 77 201 4.0 8.0 0.00 0.00 0.00 38 1006.5
20260506104016 77 212 3.0 6.0 0.00 0.00 0.00 38 1006.7
20260506103535 78 193 5.0 12.0 0.00 0.00 0.00 37 1006.7
20260506103034 77 211 6.0 14.0 0.00 0.00 0.00 37 1006.7
20260506102532 78 199 4.0 13.0 0.00 0.00 0.00 37 1006.6
20260506102031 77 189 4.0 7.0 0.00 0.00 0.00 37 1006.7
20260506101529 77 187 6.0 13.0 0.00 0.00 0.00 37 1006.8
20260506101028 77 204 4.0 8.0 0.00 0.00 0.00 37 1006.7
20260506100526 77 201 4.0 11.0 0.00 0.00 0.00 37 1006.7
20260506100026 76 192 6.0 12.0 0.00 0.00 0.00 37 1006.9
20260506095524 77 197 6.0 12.0 0.00 0.00 0.00 36 1006.9
20260506095023 77 191 5.0 10.0 0.00 0.00 0.00 36 1006.9
20260506094520 77 209 6.0 19.0 0.00 0.00 0.00 36 1006.8
20260506094019 77 205 6.0 13.0 0.00 0.00 0.00 36 1006.7
20260506093517 77 209 5.0 10.0 0.00 0.00 0.00 36 1006.7
20260506093016 75 187 4.0 8.0 0.00 0.00 0.00 38 1006.8
20260506092534 75 183 5.0 13.0 0.00 0.00 0.00 38 1006.8
20260506092033 76 185 5.0 11.0 0.00 0.00 0.00 38 1006.8
20260506091531 75 211 5.0 10.0 0.00 0.00 0.00 38 1006.8
20260506091030 75 192 5.0 12.0 0.00 0.00 0.00 38 1006.6
20260506090528 75 204 4.0 12.0 0.00 0.00 0.00 39 1006.7
20260506090027 74 161 4.0 11.0 0.00 0.00 0.00 39 1006.8
20260506085526 75 176 5.0 9.0 0.00 0.00 0.00 39 1006.7
20260506085024 75 192 4.0 12.0 0.00 0.00 0.00 38 1006.6
20260506084523 74 217 3.0 5.0 0.00 0.00 0.00 39 1006.6
20260506084022 74 198 3.0 6.0 0.00 0.00 0.00 39 1006.6
20260506083520 74 188 4.0 10.0 0.00 0.00 0.00 40 1006.6
20260506083019 74 184 5.0 8.0 0.00 0.00 0.00 40 1006.8
20260506082517 73 171 4.0 9.0 0.00 0.00 0.00 40 1006.8
20260506082015 73 209 4.0 9.0 0.00 0.00 0.00 40 1006.8
20260506081535 72 205 6.0 13.0 0.00 0.00 0.00 41 1006.8
20260506081032 72 187 7.0 13.0 0.00 0.00 0.00 41 1006.9
20260506080531 72 199 5.0 9.0 0.00 0.00 0.00 40 1006.9
20260506073522 71 208 5.0 12.0 0.00 0.00 0.00 41 1007.1
20260506073022 71 193 6.0 10.0 0.00 0.00 0.00 42 1007.0
20260506072520 71 209 5.0 10.0 0.00 0.00 0.00 41 1007.0
20260506072017 70 207 5.0 10.0 0.00 0.00 0.00 42 1006.9
20260506071516 70 227 5.0 11.0 0.00 0.00 0.00 42 1007.0
20260506071035 70 191 5.0 10.0 0.00 0.00 0.00 42 1007.0
20260506070533 69 185 6.0 11.0 0.00 0.00 0.00 43 1007.0
20260506062021 67 189 4.0 9.0 0.00 0.00 0.00 45 1007.0
20260506061519 67 203 5.0 9.0 0.00 0.00 0.00 45 1007.2
20260506061016 66 195 4.0 7.0 0.00 0.00 0.00 46 1007.2
20260506060535 65 204 4.0 8.0 0.00 0.00 0.00 45 1007.2
20260506051019 62 140 3.0 6.0 0.00 0.00 0.00 50 1007.3
20260506050517 62 158 3.0 5.0 0.00 0.00 0.00 50 1007.5
20260506045034 61 161 3.0 6.0 0.00 0.00 0.00 51 1007.7
20260506044533 62 139 1.0 3.0 0.00 0.00 0.00 52 1007.7
20260506044030 61 142 1.0 2.0 0.00 0.00 0.00 52 1007.7
20260506043529 61 155 2.0 4.0 0.00 0.00 0.00 52 1007.6
20260506043027 62 117 2.0 3.0 0.00 0.00 0.00 51 1007.6
20260506042526 61 115 1.0 2.0 0.00 0.00 0.00 53 1007.6
20260506042024 60 113 1.0 2.0 0.00 0.00 0.00 55 1007.6
20260506041523 59 113 1.0 2.0 0.00 0.00 0.00 56 1007.7
20260506041021 58 157 1.0 3.0 0.00 0.00 0.00 56 1007.8
20260506040520 57 167 2.0 4.0 0.00 0.00 0.00 57 1007.7
20260506040018 57 182 2.0 4.0 0.00 0.00 0.00 58 1007.7
20260506035517 55 183 2.0 6.0 0.00 0.00 0.00 61 1007.7
20260506035036 53 152 1.0 3.0 0.00 0.00 0.00 67 1007.7
20260506034534 51 151 1.0 2.0 0.00 0.00 0.00 72 1007.7
20260506034032 51 136 1.0 2.0 0.00 0.00 0.00 72 1007.5
20260506033531 52 128 1.0 2.0 0.00 0.00 0.00 71 1007.6
20260506033031 51 111 1.0 4.0 0.00 0.00 0.00 72 1007.4
20260506032528 51 0.0 1.0 0.00 0.00 0.00 71 1007.5
20260506032027 52 0.0 1.0 0.00 0.00 0.00 71 1007.5
20260506031525 52 118 0.0 2.0 0.00 0.00 0.00 70 1007.6
20260506031024 53 127 0.0 2.0 0.00 0.00 0.00 68 1007.4
20260506030522 54 132 0.0 2.0 0.00 0.00 0.00 66 1007.5
20260506030022 54 146 1.0 2.0 0.00 0.00 0.00 65 1007.5